Hourly Data Report for October 15, 2015

All times are specified in Local Standard Time (LST). Add 1 hour to adjust for Daylight Saving Time where and when it is observed.

KUGAARUK CLIMATE
NUNAVUT

68°32'15.060" N
89°47'47.020" W
15.80 m
2303094
71407
NBB

Download Data

Hourly Data (October 2015)
Hourly Data Report for October 15, 2015
Temp Definition
°C
Dew Point Temp Definition
°C
Rel Hum Definition
%
Wind Dir Definition
10's deg

Wind Spd Definition
km/h
Visibility Definition
km
Stn Press Definition
kPa
Hmdx Definition


Wind Chill Definition


Weather Definition


TIME
00:00 -10.6 -13.6 79 31 28   100.48   -20 LegendNANA
01:00 -10.6 -14.0 76 31 31   100.49   -20 LegendNANA
02:00 -10.1 -13.3 78 30 37   100.46   -21 LegendNANA
03:00 -10.3 -13.7 76 30 36   100.48   -21 LegendNANA
04:00 -10.2 -13.3 78 29 27   100.53   -19 LegendNANA
05:00 -10.3 -12.8 82 29 26   100.52   -19 LegendNANA
06:00 -10.4 -13.3 80 29 36   100.49   -21 LegendNANA
07:00 -10.1 -13.4 76 30 34   100.47   -20 LegendNANA
08:00 -9.9 -13.5 75 30 34   100.46   -20 LegendNANA
09:00 -9.6 -12.9 77 29 27   100.47   -19 LegendNANA
10:00 -9.8 -13.5 75 30 30   100.47   -19 LegendNANA
11:00 -10.5 -13.5 78 29 35   100.49   -21 LegendNANA
12:00 -10.9 -14.1 77 30 34   100.53   -21 LegendNANA
13:00 -10.7 -13.4 80 28 37   100.55   -21 LegendNANA
14:00 -10.6 -12.6 85 29 22   100.58   -19 LegendNANA
15:00 -10.4 -12.5 84 30 25   100.58   -19 LegendNANA
16:00 -10.6 -13.2 81 30 27   100.62   -20 LegendNANA
17:00 -11.6 -14.6 78 29 31   100.65   -22 LegendNANA
18:00 -11.3 -14.2 79 30 29   100.66   -21 LegendNANA
19:00 -11.3 -14.0 80 29 30   100.68   -21 LegendNANA
20:00 -11.2 -13.9 80 30 31   100.67   -21 LegendNANA
21:00 -10.8 -13.6 80 30 35   100.67   -21 LegendNANA
22:00 -10.4 -13.8 76 30 30   100.70   -20 LegendNANA
23:00 -10.7 -14.4 74 31 33   100.73   -21 LegendNANA

Notes on Data Quality.

Legend

  • E = Estimated
  • M = Missing
  • NA = Not Available
  • ‡ = Partner data that is not subject to review by the National Climate Archives
Date modified: